Tracking 27422 objects as of 30-May-2023
HD Live streaming from Space Station
objects crossing your sky now

STARLINK-4491

Track STARLINK-4491 now!
10-day predictions
STARLINK-4491 is classified as:


NORAD ID: 53408
Int'l Code: 2022-097W
Perigee: 546.2 km
Apogee: 547.6 km
Inclination: 53.2 °
Period: 95.4 minutes
Semi major axis: 6917 km
RCS: Unknown
Launch date: August 10, 2022
Source: United States (US)
Launch site: AIR FORCE EASTERN TEST RANGE (AFETR)
Your satellite tracking list
Your tracking list is empty




NASA's NSSDC Master Catalog

Two Line Element Set (TLE):
1 53408U 22097W   23149.84917173 -.00000325  00000-0 -23331-5 0  9998
2 53408  53.2184 349.9215 0001042  82.3029 277.8082 15.08841709 45443
Source of the keplerian elements: AFSPC